FENGYUN 1C DEB, 29889

Orbit data source: Space-Track

FENGYUN 1C DEB, 29889 is space debris in SSO originally from a launch on Mon, 10 May 1999 UTC launched from the Taiyaun Space Center, China (TSC). Fengyun 1C debris stems from the Chinese weather satellite Fengyun-1C, which was intentionally destroyed by a Chinese anti-satellite missile in 2007. This event dramatically increased the amount of space debris, with thousands of trackable fragments posing hazards to satellites and human spaceflight. The Fengyun 1C debris cloud has become a focal point in discussions about space sustainability and the need for international regulations to prevent the creation of new debris.

Loading next visibility...
Identifier
29889, 1999-025GK
Orbit
SSO
Country
Flag of CNCN / PRC
Related business
Manufacturer
Unknown
Mission
Spacecraft
Bus & Motor
Unknown
Mass
Unknown
Launch date (UTC)
1999-05-10 (27 years ago)
Launch vehicle
Unknown
Launch site
Taiyaun Space Center, China (TSC)
Object type
Payload
Rocket body
Debris
Shape & HBR
Unknown shape, 0.1 m
Radar Cross Section
Medium (>0.1 m² and <1 m²)

Expand to show TLE details & history
Last TLE update: 1 day ago

TLE from 1 day ago
0 FENGYUN 1C DEB
1 29889U 99025GK  26264.34953260  .00000289  00000-0  16046-3 0  9992
2 29889  99.5134  44.1060 0152897 332.2175  55.8221 14.13880634 13082
Epoch: 2026-09-21T08:23Z
TLE epoch observation values (Epoch: 2026-09-21T08:23:19.616Z)
Latitude
29.10868°
Longitude
-87.28174°
Altitude
788.806 km
Speed
7.493 km/s
True Right ascension
02h 35m 07s
True Declination
28° 57' 48"
Sunlit
Object was in full shadow at epoch
Visualization orbit readout
Latitude
Unknown
Longitude
Unknown
Altitude
Unknown
Speed
Unknown
Apparent Right ascension
Unknown
Apparent Declination
Unknown
Sunlit
N/A
Visualization observer readout
Local Sidereal Time
08:25:12
Azimuth
Unknown
Elevation
Unknown
Doppler factor
Unknown
Orbital elements
Apogee altitude
953.743 km
Perigee altitude
732.914 km
Semi-major axis
7,221.465 km
Eccentricity
0.01529
Inclination
99.5134°
RAAN
44.106°
Arg. of periapsis
332.2175°
True anomaly
57.28715°
Mean anomaly
55.8221°
Eccentric anomaly
56.55306°
Mean motion
3.53676 °/min
Orbital period
101.79 mins
BSTAR
0.00016046
Loading maneuver chart data...
Computing Atmospheric mass density...

Documentation

Showing up to 5 results
|